Regional Weather Roundup
Issued by NWS

Home | Current Version | Previous Version | Text Only | Print | Product List | Glossary Off
Versions: 1 2 3 4 5 6 7 8 9 10 11 12 13 14 15 16 17 18 19 20 21 22 23 24 25 26 27 28 29 30 31 32 33 34 35 36 37 38 39 40 41 42 43 44 45 46 47 48 49 50

000
ASUS45 KABQ 011101
RWRNM
NEW MEXICO REGIONAL WEATHER ROUNDUP
NATIONAL WEATHER SERVICE ALBUQUERQUE NM
500 AM MDT WED JUL 01 2015

NOTE: "FAIR" MEANS FEW OR NO CLOUDS BELOW 12,000 FEET AGL WITH NO
       SIGNIFICANT WEATHER OR OBSTRUCTIONS TO VISION.

      THIS PRODUCT IS RELEASED AS TWO VERSIONS.  ONE VERSION NEAR
      THE TOP OF THE HOUR CONTAINING PRELIMINARY DATA FROM ALBUQUERQUE
      AND OTHER STATIONS.  A FINAL VERSION WITH ADDITIONAL DATA IS
      ISSUED ABOUT 10 MINUTES AFTER THE HOUR.

NMZ501-503-504-510>518-011200-
NORTHWEST PLATEAU/NORTHCENTRAL MOUNTAINS

CITY           SKY/WX    TMP DP  RH WIND       PRES   REMARKS
FARMINGTON     CLEAR     77  43  29 SE13      30.11R
LOS ALAMOS     MOCLDY    65  45  48 N6        30.36S
SANTA FE       PTCLDY    64  42  44 N10       30.28F
TAOS           CLOUDY    57  48  72 CALM      30.37F
ANGEL FIRE     FAIR      55  49  80 CALM      30.44F

$$
NMZ402-403-502-505>509-011200-
WESTCENTRAL MOUNTAINS/SOUTHWEST MOUNTAINS

CITY           SKY/WX    TMP DP  RH WIND       PRES   REMARKS
GALLUP         MOCLDY    59  48  67 W6        30.21R
GRANTS         PTCLDY    62  43  50 SE5       30.24R
SILVER CITY      N/A     63  52  67 N5        30.20S

$$
NMZ407-409-411-412-011200-
SOUTHERN DESERTS

CITY           SKY/WX    TMP DP  RH WIND       PRES   REMARKS
LORDSBURG      FAIR      68  55  64 S6        30.10S
DEMING         PTCLDY    65  49  56 CALM      30.10S
HOLLOMAN AFB   PTCLDY    65  49  54 NE5       30.10S
ALAMOGORDO     CLEAR     64  46  52 W5        30.12S
T OR C         CLEAR     69  50  50 NW3       30.13F

$$
NMZ519>523-011200-
CENTRAL VALLEYS/CENTRAL HIGHLANDS

CITY           SKY/WX    TMP DP  RH WIND       PRES   REMARKS
ALBUQUERQUE    CLEAR     74  47  38 NE10      30.21R
DOUBLE EAGLE   CLEAR     65  47  50 E9        30.24R
MORIARTY ARPT    N/A     51  45  79 NW7       30.28R
CLINES CORNERS CLEAR     59  45  59 W9        30.30R
BELEN          FAIR      69  49  48 SE9       30.15S
SOCORRO        NOT AVBL

$$
NMZ524>526-539-540-011200-
SOUTHCENTRAL MOUNTAINS

CITY           SKY/WX    TMP DP  RH WIND       PRES   REMARKS
RUIDOSO        NOT AVBL

$$
NMZ527>531-011200-
NORTHEAST HIGHLANDS/NORTHEAST PLAINS

CITY           SKY/WX    TMP DP  RH WIND       PRES   REMARKS
LAS VEGAS      CLEAR     56  47  71 NW8       30.29R
RATON          CLOUDY    62  53  72 NE3       30.21F
CLAYTON        MOCLDY    67  50  54 W14       30.10S

$$
NMZ532>537-011200-
EASTCENTRAL PLAINS

CITY           SKY/WX    TMP DP  RH WIND       PRES   REMARKS
TUCUMCARI      CLEAR     69  55  60 VRB6      30.08S
CANNON AFB     CLEAR     64  58  79 W7        30.13R
CLOVIS AIRPORT CLEAR     61  55  82 SW7       30.13

$$
NMZ028-029-538-011200-
SOUTHEAST PLAINS

CITY           SKY/WX    TMP DP  RH WIND       PRES   REMARKS
ROSWELL        CLEAR     65  54  67 SE6       30.08S
ARTESIA        CLEAR     68  55  64 CALM      30.09S
CARLSBAD       CLEAR     67  58  72 E3        30.06R
HOBBS          CLEAR     64  64 100 CALM      30.12S


$$


USA.gov is the U.S. government's official web portal to all federal, state and local government web resources and services.